| time (UTC) | temp F | wind direction | speed MPH | gust MPH | rain 1hr in | rain 24hr in | rain mn in | humidity % | barometer mb |
| 20260902210804 | 75 | 69 | 9.0 | 19.0 | 0.00 | 0.00 | 0.00 | 84 | 948.1 |
| 20260902210303 | 75 | 68 | 8.0 | 19.0 | 0.00 | 0.00 | 0.00 | 87 | 948.0 |
| 20260902205802 | 74 | 72 | 8.0 | 18.0 | 0.00 | 0.00 | 0.00 | 87 | 947.9 |
| 20260902204745 | 74 | 68 | 6.0 | 19.0 | 0.00 | 0.00 | 0.00 | 89 | 948.3 |
| 20260902204245 | 74 | 68 | 7.0 | 19.0 | 0.00 | 0.00 | 0.00 | 89 | 948.5 |
| 20260902203228 | 73 | 63 | 6.0 | 22.0 | 0.00 | 0.00 | 0.00 | 92 | 948.3 |
| 20260902202727 | 73 | 61 | 9.0 | 22.0 | 0.00 | 0.00 | 0.00 | 92 | 948.3 |
| 20260902202225 | 73 | 61 | 8.0 | 19.0 | 0.00 | 0.00 | 0.00 | 92 | 948.2 |
| 20260902201724 | 72 | 61 | 8.0 | 18.0 | 0.00 | 0.00 | 0.00 | 93 | 948.3 |
| 20260902201223 | 72 | 71 | 9.0 | 21.0 | 0.00 | 0.00 | 0.00 | 93 | 948.4 |
| 20260902200722 | 72 | 76 | 7.0 | 21.0 | 0.00 | 0.00 | 0.00 | 93 | 947.8 |
| 20260902195706 | 72 | 69 | 10.0 | 22.0 | 0.00 | 0.00 | 0.00 | 95 | 948.2 |
| 20260902195204 | 71 | 76 | 7.0 | 21.0 | 0.00 | 0.00 | 0.00 | 96 | 948.0 |
| 20260902194703 | 71 | 56 | 8.0 | 21.0 | 0.00 | 0.00 | 0.00 | 94 | 948.2 |
| 20260902194202 | 71 | 77 | 5.0 | 15.0 | 0.00 | 0.00 | 0.00 | 94 | 948.1 |
| 20260902193702 | 72 | 74 | 8.0 | 21.0 | 0.00 | 0.00 | 0.00 | 93 | 948.1 |
| 20260902192644 | 72 | 62 | 7.0 | 16.0 | 0.00 | 0.00 | 0.00 | 92 | 948.4 |
| 20260902192143 | 72 | 72 | 5.0 | 16.0 | 0.00 | 0.00 | 0.00 | 91 | 948.2 |
| 20260902191643 | 72 | 92 | 7.0 | 18.0 | 0.00 | 0.00 | 0.00 | 91 | 948.3 |
| 20260902191141 | 72 | 81 | 8.0 | 18.0 | 0.00 | 0.00 | 0.00 | 92 | 948.3 |
| 20260902190641 | 72 | 69 | 7.0 | 18.0 | 0.00 | 0.00 | 0.00 | 92 | 948.1 |
| 20260902190140 | 72 | 79 | 6.0 | 21.0 | 0.00 | 0.00 | 0.00 | 93 | 948.2 |
| 20260902185637 | 71 | 82 | 8.0 | 21.0 | 0.00 | 0.00 | 0.00 | 92 | 947.9 |
| 20260902184621 | 71 | 76 | 6.0 | 18.0 | 0.00 | 0.00 | 0.00 | 92 | 948.3 |
| 20260902183047 | 71 | 95 | 7.0 | 14.0 | 0.00 | 0.00 | 0.00 | 93 | 948.4 |
| 20260902182546 | 71 | 82 | 5.0 | 15.0 | 0.00 | 0.00 | 0.00 | 93 | 948.2 |
| 20260902182046 | 71 | 90 | 7.0 | 15.0 | 0.00 | 0.00 | 0.00 | 92 | 948.5 |
| 20260902181544 | 71 | 78 | 6.0 | 15.0 | 0.00 | 0.00 | 0.00 | 91 | 948.5 |
| 20260902181043 | 71 | 99 | 8.0 | 15.0 | 0.00 | 0.00 | 0.00 | 91 | 948.5 |
| 20260902175511 | 71 | 97 | 7.0 | 14.0 | 0.00 | 0.00 | 0.00 | 90 | 948.2 |
| 20260902175010 | 71 | 94 | 6.0 | 18.0 | 0.00 | 0.00 | 0.00 | 91 | 948.4 |
| 20260902173953 | 70 | 104 | 5.0 | 13.0 | 0.00 | 0.00 | 0.00 | 91 | 948.2 |
| 20260902173452 | 70 | 85 | 6.0 | 14.0 | 0.00 | 0.00 | 0.00 | 91 | 948.1 |
| 20260902172951 | 70 | 92 | 5.0 | 14.0 | 0.00 | 0.00 | 0.00 | 91 | 948.2 |
| 20260902172449 | 70 | 63 | 6.0 | 16.0 | 0.00 | 0.00 | 0.00 | 91 | 948.4 |
| 20260902171433 | 70 | 75 | 8.0 | 14.0 | 0.00 | 0.00 | 0.00 | 92 | 947.7 |
| 20260902170932 | 69 | 77 | 6.0 | 14.0 | 0.00 | 0.00 | 0.00 | 92 | 947.8 |
| 20260902170430 | 69 | 83 | 5.0 | 18.0 | 0.00 | 0.00 | 0.00 | 91 | 947.6 |
| 20260902165929 | 69 | 56 | 5.0 | 18.0 | 0.00 | 0.00 | 0.00 | 91 | 947.5 |
| 20260902165428 | 69 | 86 | 6.0 | 14.0 | 0.00 | 0.00 | 0.00 | 91 | 947.9 |
| 20260902164411 | 69 | 98 | 6.0 | 15.0 | 0.00 | 0.00 | 0.00 | 92 | 947.4 |
| 20260902163910 | 69 | 89 | 4.0 | 15.0 | 0.00 | 0.00 | 0.00 | 92 | 947.6 |
| 20260902163409 | 69 | 81 | 5.0 | 12.0 | 0.00 | 0.00 | 0.00 | 93 | 947.5 |
| 20260902162908 | 69 | 83 | 4.0 | 11.0 | 0.00 | 0.00 | 0.00 | 93 | 947.6 |
| 20260902161851 | 69 | 46 | 3.0 | 11.0 | 0.00 | 0.00 | 0.00 | 94 | 947.3 |
| 20260902160834 | 68 | 67 | 4.0 | 12.0 | 0.00 | 0.00 | 0.00 | 94 | 947.4 |
| 20260902160333 | 68 | 56 | 2.0 | 12.0 | 0.00 | 0.00 | 0.00 | 95 | 947.4 |
| 20260902155831 | 68 | 68 | 2.0 | 12.0 | 0.00 | 0.00 | 0.00 | 95 | 947.2 |
| 20260902155330 | 68 | 74 | 2.0 | 12.0 | 0.00 | 0.00 | 0.00 | 95 | 947.3 |
| 20260902154829 | 68 | 89 | 0.0 | 12.0 | 0.00 | 0.00 | 0.00 | 95 | 947.2 |
| 20260902154328 | 68 | 105 | 2.0 | 12.0 | 0.00 | 0.00 | 0.00 | 95 | 947.4 |
| 20260902153827 | 69 | 94 | 2.0 | 12.0 | 0.00 | 0.00 | 0.00 | 95 | 947.5 |
| 20260902153326 | 69 | 90 | 2.0 | 12.0 | 0.00 | 0.00 | 0.00 | 95 | 947.3 |
| 20260902152309 | 69 | 45 | 1.0 | 12.0 | 0.00 | 0.00 | 0.00 | 95 | 947.3 |
| 20260902151252 | 69 | 27 | 0.0 | 12.0 | 0.00 | 0.00 | 0.00 | 95 | 947.2 |
| 20260902150750 | 69 | 31 | 1.0 | 12.0 | 0.00 | 0.00 | 0.00 | 94 | 946.9 |
| 20260902150249 | 69 | 90 | 0.0 | 12.0 | 0.00 | 0.00 | 0.00 | 94 | 946.9 |
| 20260902145748 | 69 | 71 | 1.0 | 12.0 | 0.00 | 0.00 | 0.00 | 94 | 947.0 |
| 20260902145246 | 69 | 79 | 2.0 | 12.0 | 0.00 | 0.00 | 0.00 | 94 | 947.1 |
| 20260902144229 | 69 | 92 | 3.0 | 12.0 | 0.00 | 0.00 | 0.00 | 94 | 947.0 |
| 20260902143211 | 69 | 90 | 5.0 | 13.0 | 0.00 | 0.00 | 0.00 | 94 | 946.9 |
| 20260902142710 | 69 | 96 | 5.0 | 15.0 | 0.00 | 0.00 | 0.00 | 94 | 946.9 |
| 20260902142209 | 69 | 89 | 6.0 | 15.0 | 0.00 | 0.00 | 0.00 | 93 | 946.6 |
| 20260902141708 | 70 | 91 | 5.0 | 13.0 | 0.00 | 0.00 | 0.00 | 93 | 946.7 |
| 20260902141207 | 70 | 61 | 4.0 | 13.0 | 0.00 | 0.00 | 0.00 | 93 | 946.7 |
| 20260902140706 | 70 | 51 | 6.0 | 11.0 | 0.00 | 0.00 | 0.00 | 93 | 946.6 |
| 20260902140205 | 70 | 54 | 4.0 | 11.0 | 0.00 | 0.00 | 0.00 | 94 | 946.7 |
| 20260902135704 | 70 | 60 | 3.0 | 16.0 | 0.00 | 0.00 | 0.00 | 94 | 946.6 |
| 20260902135203 | 70 | 79 | 6.0 | 16.0 | 0.00 | 0.00 | 0.00 | 94 | 946.8 |
| 20260902134701 | 70 | 83 | 6.0 | 15.0 | 0.00 | 0.00 | 0.00 | 95 | 946.9 |
| 20260902134200 | 70 | 81 | 4.0 | 15.0 | 0.00 | 0.00 | 0.00 | 95 | 946.6 |
| 20260902133659 | 70 | 93 | 6.0 | 15.0 | 0.00 | 0.00 | 0.00 | 95 | 946.8 |
| 20260902133158 | 70 | 88 | 8.0 | 22.0 | 0.00 | 0.00 | 0.00 | 95 | 946.7 |
| 20260902132656 | 70 | 90 | 7.0 | 22.0 | 0.00 | 0.00 | 0.00 | 95 | 946.5 |
| 20260902132155 | 70 | 88 | 10.0 | 22.0 | 0.00 | 0.00 | 0.00 | 95 | 946.1 |
| 20260902131654 | 70 | 98 | 7.0 | 16.0 | 0.00 | 0.00 | 0.00 | 95 | 946.6 |
| 20260902131153 | 70 | 92 | 8.0 | 16.0 | 0.00 | 0.00 | 0.00 | 95 | 946.5 |
| 20260902130652 | 70 | 84 | 5.0 | 15.0 | 0.00 | 0.00 | 0.00 | 94 | 946.4 |
| 20260902130151 | 70 | 77 | 5.0 | 18.0 | 0.00 | 0.00 | 0.00 | 94 | 946.4 |
| 20260902125133 | 70 | 81 | 5.0 | 13.0 | 0.00 | 0.00 | 0.00 | 93 | 946.4 |
| 20260902124632 | 70 | 75 | 5.0 | 14.0 | 0.00 | 0.00 | 0.00 | 93 | 946.5 |
| 20260902124131 | 70 | 72 | 4.0 | 14.0 | 0.00 | 0.00 | 0.00 | 92 | 946.7 |
| 20260902123114 | 70 | 54 | 6.0 | 15.0 | 0.00 | 0.00 | 0.00 | 92 | 946.4 |
| 20260902115952 | 71 | 68 | 8.0 | 20.0 | 0.00 | 0.00 | 0.00 | 91 | 946.7 |
| 20260902115451 | 71 | 61 | 7.0 | 20.0 | 0.00 | 0.00 | 0.00 | 92 | 946.1 |
| 20260902114950 | 71 | 45 | 7.0 | 14.0 | 0.00 | 0.00 | 0.00 | 93 | 946.7 |
| 20260902113933 | 71 | 60 | 7.0 | 19.0 | 0.00 | 0.00 | 0.00 | 93 | 946.4 |
| 20260902113432 | 71 | 58 | 6.0 | 18.0 | 0.00 | 0.00 | 0.00 | 94 | 946.5 |
| 20260902112931 | 71 | 60 | 6.0 | 15.0 | 0.00 | 0.00 | 0.00 | 94 | 946.7 |
| 20260902112429 | 71 | 60 | 7.0 | 15.0 | 0.00 | 0.00 | 0.00 | 95 | 946.8 |
| 20260902111928 | 70 | 46 | 6.0 | 13.0 | 0.00 | 0.00 | 0.00 | 95 | 947.0 |
| 20260902111427 | 70 | 57 | 6.0 | 14.0 | 0.00 | 0.00 | 0.00 | 96 | 946.8 |
| 20260902110926 | 70 | 58 | 6.0 | 14.0 | 0.00 | 0.00 | 0.00 | 96 | 947.0 |
| 20260902110425 | 70 | 57 | 5.0 | 15.0 | 0.00 | 0.00 | 0.00 | 96 | 946.8 |
| 20260902105924 | 70 | 60 | 7.0 | 20.0 | 0.00 | 0.00 | 0.00 | 97 | 946.8 |
| 20260902105423 | 70 | 53 | 8.0 | 20.0 | 0.00 | 0.00 | 0.00 | 97 | 947.1 |
| 20260902103850 | 70 | 54 | 7.0 | 20.0 | 0.00 | 0.00 | 0.00 | 97 | 946.8 |
| 20260902102832 | 70 | 45 | 7.0 | 18.0 | 0.00 | 0.00 | 0.00 | 97 | 946.5 |
| 20260902101815 | 70 | 48 | 7.0 | 15.0 | 0.00 | 0.00 | 0.00 | 97 | 946.8 |
| 20260902101314 | 70 | 57 | 7.0 | 15.0 | 0.00 | 0.00 | 0.00 | 97 | 946.9 |
| 20260902100813 | 70 | 49 | 6.0 | 15.0 | 0.00 | 0.00 | 0.00 | 98 | 946.7 |
| 20260902095239 | 70 | 53 | 6.0 | 19.0 | 0.00 | 0.00 | 0.00 | 98 | 946.9 |
| 20260902094738 | 70 | 57 | 7.0 | 18.0 | 0.00 | 0.00 | 0.00 | 98 | 947.1 |
| 20260902094237 | 70 | 58 | 7.0 | 18.0 | 0.00 | 0.00 | 0.00 | 98 | 947.2 |
| 20260902093736 | 70 | 53 | 7.0 | 13.0 | 0.00 | 0.00 | 0.00 | 98 | 947.3 |
| 20260902092719 | 70 | 50 | 7.0 | 15.0 | 0.00 | 0.00 | 0.00 | 98 | 947.3 |
| 20260902092218 | 70 | 49 | 7.0 | 15.0 | 0.00 | 0.00 | 0.00 | 98 | 947.3 |
| 20260902091717 | 70 | 46 | 8.0 | 14.0 | 0.00 | 0.00 | 0.00 | 98 | 947.5 |
| 20260902091216 | 70 | 46 | 7.0 | 13.0 | 0.00 | 0.00 | 0.00 | 98 | 947.3 |
| 20260902090715 | 70 | 42 | 7.0 | 14.0 | 0.00 | 0.00 | 0.00 | 98 | 947.3 |
| 20260902090214 | 70 | 46 | 6.0 | 14.0 | 0.00 | 0.00 | 0.00 | 98 | 947.6 |
| 20260902085713 | 70 | 54 | 5.0 | 14.0 | 0.00 | 0.00 | 0.00 | 98 | 947.4 |
| 20260902085212 | 70 | 51 | 6.0 | 14.0 | 0.00 | 0.00 | 0.00 | 98 | 947.6 |
| 20260902084711 | 70 | 60 | 4.0 | 12.0 | 0.00 | 0.00 | 0.00 | 98 | 947.7 |
| 20260902084210 | 70 | 51 | 3.0 | 13.0 | 0.00 | 0.00 | 0.00 | 98 | 947.7 |
| 20260902083709 | 70 | 57 | 3.0 | 13.0 | 0.00 | 0.00 | 0.00 | 98 | 948.1 |
| 20260902083208 | 70 | 58 | 3.0 | 13.0 | 0.00 | 0.00 | 0.00 | 98 | 947.9 |
| 20260902082151 | 70 | 73 | 3.0 | 11.0 | 0.00 | 0.00 | 0.00 | 98 | 948.2 |
| 20260902081649 | 70 | 65 | 4.0 | 11.0 | 0.00 | 0.00 | 0.00 | 98 | 947.9 |
| 20260902081148 | 70 | 68 | 3.0 | 11.0 | 0.00 | 0.00 | 0.00 | 98 | 948.2 |
| 20260902080647 | 70 | 78 | 4.0 | 12.0 | 0.00 | 0.00 | 0.00 | 98 | 948.1 |
| 20260902080146 | 70 | 75 | 5.0 | 12.0 | 0.00 | 0.00 | 0.00 | 98 | 948.1 |
| 20260902075645 | 70 | 68 | 4.0 | 12.0 | 0.00 | 0.00 | 0.00 | 98 | 947.9 |
| 20260902075144 | 70 | 43 | 5.0 | 12.0 | 0.00 | 0.00 | 0.00 | 98 | 947.9 |
| 20260902074643 | 70 | 49 | 3.0 | 12.0 | 0.00 | 0.00 | 0.00 | 98 | 947.6 |
| 20260902074141 | 70 | 57 | 4.0 | 12.0 | 0.00 | 0.00 | 0.00 | 98 | 948.0 |
| 20260902073640 | 70 | 67 | 4.0 | 12.0 | 0.00 | 0.00 | 0.00 | 98 | 948.1 |
| 20260902073139 | 70 | 67 | 4.0 | 13.0 | 0.00 | 0.00 | 0.00 | 98 | 948.2 |
| 20260902072638 | 70 | 79 | 6.0 | 14.0 | 0.00 | 0.00 | 0.00 | 98 | 948.3 |
| 20260902072137 | 70 | 85 | 5.0 | 14.0 | 0.00 | 0.00 | 0.00 | 98 | 948.2 |
| 20260902071119 | 70 | 69 | 4.0 | 11.0 | 0.00 | 0.00 | 0.00 | 98 | 947.9 |
| 20260902070618 | 70 | 82 | 4.0 | 11.0 | 0.00 | 0.00 | 0.00 | 98 | 948.1 |
| 20260902070117 | 70 | 74 | 5.0 | 11.0 | 0.00 | 0.00 | 0.00 | 98 | 947.9 |
| 20260902065059 | 70 | 50 | 4.0 | 12.0 | 0.00 | 0.00 | 0.00 | 98 | 947.8 |
| 20260902064558 | 70 | 50 | 4.0 | 11.0 | 0.00 | 0.00 | 0.00 | 98 | 947.7 |
| 20260902064057 | 70 | 42 | 5.0 | 13.0 | 0.00 | 0.00 | 0.00 | 98 | 947.7 |
| 20260902063556 | 70 | 50 | 5.0 | 13.0 | 0.00 | 0.00 | 0.00 | 98 | 948.1 |
| 20260902063054 | 70 | 53 | 5.0 | 13.0 | 0.00 | 0.00 | 0.00 | 98 | 947.9 |
| 20260902062037 | 70 | 50 | 6.0 | 13.0 | 0.00 | 0.00 | 0.00 | 98 | 947.9 |
| 20260902061535 | 70 | 50 | 4.0 | 15.0 | 0.00 | 0.00 | 0.00 | 98 | 948.2 |
| 20260902060518 | 69 | 51 | 4.0 | 11.0 | 0.00 | 0.00 | 0.00 | 97 | 947.7 |
| 20260902060017 | 69 | 46 | 5.0 | 11.0 | 0.00 | 0.00 | 0.00 | 97 | 947.5 |
| 20260902055517 | 69 | 60 | 4.0 | 13.0 | 0.00 | 0.00 | 0.00 | 97 | 947.5 |
| 20260902055015 | 69 | 55 | 5.0 | 13.0 | 0.00 | 0.00 | 0.00 | 97 | 947.4 |
| 20260902053957 | 69 | 63 | 5.0 | 14.0 | 0.00 | 0.00 | 0.00 | 97 | 947.5 |
| 20260902053457 | 69 | 55 | 4.0 | 14.0 | 0.00 | 0.00 | 0.00 | 97 | 947.6 |
| 20260902052955 | 69 | 71 | 7.0 | 15.0 | 0.00 | 0.00 | 0.00 | 97 | 947.4 |
| 20260902052453 | 69 | 74 | 6.0 | 15.0 | 0.00 | 0.00 | 0.00 | 97 | 947.5 |
| 20260902051952 | 69 | 76 | 6.0 | 12.0 | 0.00 | 0.00 | 0.00 | 96 | 947.4 |
| 20260902051451 | 70 | 68 | 5.0 | 13.0 | 0.00 | 0.00 | 0.00 | 96 | 947.8 |
| 20260902050950 | 70 | 74 | 3.0 | 13.0 | 0.00 | 0.00 | 0.00 | 96 | 947.6 |
| 20260902050450 | 70 | 70 | 4.0 | 12.0 | 0.00 | 0.00 | 0.00 | 95 | 947.6 |
| 20260902045948 | 70 | 75 | 5.0 | 15.0 | 0.00 | 0.00 | 0.00 | 95 | 947.9 |
| 20260902045446 | 70 | 85 | 5.0 | 15.0 | 0.00 | 0.00 | 0.00 | 95 | 947.6 |
| 20260902044945 | 70 | 82 | 6.0 | 14.0 | 0.00 | 0.00 | 0.00 | 94 | 947.8 |
| 20260902044444 | 70 | 80 | 8.0 | 14.0 | 0.00 | 0.00 | 0.00 | 94 | 947.5 |
| 20260902043942 | 69 | 84 | 4.0 | 12.0 | 0.00 | 0.00 | 0.00 | 93 | 947.8 |
| 20260902043441 | 69 | 62 | 4.0 | 12.0 | 0.00 | 0.00 | 0.00 | 93 | 947.5 |
| 20260902042425 | 69 | 61 | 5.0 | 13.0 | 0.00 | 0.00 | 0.00 | 93 | 947.7 |
| 20260902040851 | 70 | 45 | 6.0 | 14.0 | 0.00 | 0.00 | 0.00 | 90 | 947.3 |
| 20260902035833 | 71 | 61 | 5.0 | 15.0 | 0.00 | 0.00 | 0.00 | 89 | 947.2 |
| 20260902035333 | 71 | 64 | 6.0 | 18.0 | 0.00 | 0.00 | 0.00 | 87 | 947.5 |
| 20260902034832 | 71 | 57 | 6.0 | 20.0 | 0.00 | 0.00 | 0.00 | 89 | 947.6 |
| 20260902034330 | 71 | 63 | 5.0 | 20.0 | 0.00 | 0.00 | 0.00 | 88 | 947.4 |
| 20260902033829 | 71 | 64 | 5.0 | 15.0 | 0.00 | 0.00 | 0.00 | 88 | 947.1 |
| 20260902033329 | 71 | 51 | 6.0 | 14.0 | 0.00 | 0.00 | 0.00 | 88 | 947.2 |
| 20260902032827 | 71 | 73 | 5.0 | 15.0 | 0.00 | 0.00 | 0.00 | 88 | 947.3 |
| 20260902032326 | 72 | 68 | 5.0 | 15.0 | 0.00 | 0.00 | 0.00 | 89 | 947.2 |
| 20260902031825 | 71 | 72 | 5.0 | 15.0 | 0.00 | 0.00 | 0.00 | 87 | 947.2 |
| 20260902030808 | 72 | 54 | 5.0 | 14.0 | 0.00 | 0.00 | 0.00 | 89 | 947.3 |
| 20260902030306 | 72 | 62 | 5.0 | 14.0 | 0.00 | 0.00 | 0.00 | 88 | 947.2 |
| 20260902025806 | 72 | 72 | 4.0 | 11.0 | 0.00 | 0.00 | 0.00 | 88 | 947.1 |
| 20260902025306 | 72 | 73 | 4.0 | 11.0 | 0.00 | 0.00 | 0.00 | 89 | 947.5 |
| 20260902024804 | 72 | 82 | 3.0 | 11.0 | 0.00 | 0.00 | 0.00 | 89 | 947.4 |
| 20260902024303 | 73 | 90 | 3.0 | 11.0 | 0.00 | 0.00 | 0.00 | 89 | 947.4 |
| 20260902023802 | 72 | 68 | 4.0 | 11.0 | 0.00 | 0.00 | 0.00 | 89 | 947.5 |
| 20260902023301 | 72 | 56 | 4.0 | 11.0 | 0.00 | 0.00 | 0.00 | 89 | 947.2 |
| 20260902022800 | 72 | 72 | 4.0 | 11.0 | 0.00 | 0.00 | 0.00 | 88 | 947.4 |
| 20260902022259 | 72 | 96 | 4.0 | 11.0 | 0.00 | 0.00 | 0.00 | 89 | 947.5 |
| 20260902021758 | 72 | 92 | 3.0 | 11.0 | 0.00 | 0.00 | 0.00 | 89 | 947.6 |
| 20260902021257 | 73 | 92 | 4.0 | 12.0 | 0.00 | 0.00 | 0.00 | 87 | 947.5 |
| 20260902020756 | 74 | 83 | 3.0 | 12.0 | 0.00 | 0.00 | 0.00 | 85 | 947.9 |
| 20260902020255 | 76 | 114 | 4.0 | 12.0 | 0.00 | 0.00 | 0.00 | 82 | 947.7 |
| 20260902015754 | 76 | 38 | 2.0 | 12.0 | 0.00 | 0.00 | 0.00 | 82 | 947.5 |
| 20260902014736 | 76 | 21 | 1.0 | 12.0 | 0.00 | 0.00 | 0.00 | 80 | 947.6 |
| 20260902014235 | 76 | 44 | 2.0 | 12.0 | 0.00 | 0.00 | 0.00 | 81 | 948.1 |
| 20260902013734 | 76 | 99 | 4.0 | 12.0 | 0.00 | 0.00 | 0.00 | 80 | 947.8 |
| 20260902013233 | 77 | 57 | 5.0 | 12.0 | 0.00 | 0.00 | 0.00 | 79 | 947.7 |
| 20260902012732 | 77 | 23 | 2.0 | 13.0 | 0.00 | 0.00 | 0.00 | 80 | 947.9 |
| 20260902011714 | 77 | 48 | 2.0 | 13.0 | 0.00 | 0.00 | 0.00 | 83 | 948.1 |
| 20260902011213 | 77 | 68 | 4.0 | 13.0 | 0.00 | 0.00 | 0.00 | 81 | 947.6 |
| 20260902010712 | 77 | 82 | 3.0 | 11.0 | 0.00 | 0.00 | 0.00 | 80 | 947.7 |
| 20260902010211 | 77 | 86 | 1.0 | 11.0 | 0.00 | 0.00 | 0.00 | 82 | 947.5 |
| 20260902005709 | 77 | 67 | 4.0 | 11.0 | 0.00 | 0.00 | 0.00 | 82 | 947.4 |
| 20260902005208 | 77 | 35 | 3.0 | 11.0 | 0.00 | 0.00 | 0.00 | 81 | 947.7 |
| 20260902004707 | 77 | 42 | 5.0 | 11.0 | 0.00 | 0.00 | 0.00 | 81 | 947.7 |
| 20260902004206 | 77 | 35 | 4.0 | 13.0 | 0.00 | 0.00 | 0.00 | 80 | 947.4 |
| 20260902003705 | 77 | 52 | 3.0 | 13.0 | 0.00 | 0.00 | 0.00 | 84 | 947.4 |
| 20260902003204 | 77 | 43 | 4.0 | 13.0 | 0.00 | 0.00 | 0.00 | 83 | 947.2 |
| 20260902002703 | 77 | 40 | 3.0 | 13.0 | 0.00 | 0.00 | 0.00 | 83 | 947.4 |
| 20260902002201 | 76 | 67 | 4.0 | 13.0 | 0.00 | 0.00 | 0.00 | 83 | 947.4 |
| 20260902001700 | 76 | 58 | 7.0 | 13.0 | 0.00 | 0.00 | 0.00 | 82 | 947.7 |
| 20260902001159 | 76 | 66 | 5.0 | 16.0 | 0.00 | 0.00 | 0.00 | 84 | 947.3 |
| 20260902000658 | 76 | 51 | 6.0 | 16.0 | 0.00 | 0.00 | 0.00 | 84 | 947.1 |
| 20260902000157 | 77 | 64 | 5.0 | 13.0 | 0.00 | 0.00 | 0.00 | 84 | 947.2 |
| 20260901235655 | 77 | 41 | 6.0 | 13.0 | 0.00 | 0.00 | 0.00 | 82 | 947.2 |
| 20260901235154 | 77 | 56 | 6.0 | 12.0 | 0.00 | 0.00 | 0.00 | 83 | 947.6 |
| 20260901234653 | 77 | 44 | 7.0 | 14.0 | 0.00 | 0.00 | 0.00 | 82 | 947.7 |
| 20260901234152 | 77 | 42 | 7.0 | 14.0 | 0.00 | 0.00 | 0.00 | 82 | 947.6 |
| 20260901233135 | 77 | 51 | 6.0 | 18.0 | 0.00 | 0.00 | 0.00 | 83 | 947.4 |
| 20260901232634 | 77 | 46 | 4.0 | 19.0 | 0.00 | 0.00 | 0.00 | 84 | 947.5 |
| 20260901232133 | 77 | 40 | 5.0 | 19.0 | 0.00 | 0.00 | 0.00 | 85 | 947.8 |
| 20260901231632 | 76 | 44 | 7.0 | 14.0 | 0.00 | 0.00 | 0.00 | 83 | 947.5 |
| 20260901231131 | 76 | 54 | 5.0 | 14.0 | 0.00 | 0.00 | 0.00 | 86 | 947.7 |
| 20260901230630 | 77 | 58 | 5.0 | 18.0 | 0.00 | 0.00 | 0.00 | 87 | 947.9 |
| 20260901230129 | 76 | 71 | 6.0 | 19.0 | 0.00 | 0.00 | 0.00 | 86 | 947.8 |
| 20260901225628 | 77 | 69 | 8.0 | 20.0 | 0.00 | 0.00 | 0.00 | 84 | 948.0 |
| 20260901225127 | 77 | 63 | 5.0 | 20.0 | 0.00 | 0.00 | 0.00 | 84 | 948.2 |
| 20260901224110 | 76 | 48 | 6.0 | 14.0 | 0.00 | 0.00 | 0.00 | 85 | 948.1 |
| 20260901223609 | 77 | 62 | 6.0 | 14.0 | 0.00 | 0.00 | 0.00 | 85 | 948.3 |
| 20260901223108 | 76 | 53 | 7.0 | 15.0 | 0.00 | 0.00 | 0.00 | 84 | 948.3 |
| 20260901222607 | 76 | 86 | 5.0 | 19.0 | 0.00 | 0.00 | 0.00 | 86 | 948.4 |
| 20260901222106 | 76 | 67 | 7.0 | 19.0 | 0.00 | 0.00 | 0.00 | 83 | 948.3 |
| 20260901221605 | 76 | 56 | 6.0 | 15.0 | 0.00 | 0.00 | 0.00 | 84 | 948.4 |
| 20260901221104 | 76 | 62 | 6.0 | 15.0 | 0.00 | 0.00 | 0.00 | 85 | 948.5 |
| 20260901220603 | 76 | 80 | 7.0 | 15.0 | 0.00 | 0.00 | 0.00 | 86 | 948.3 |
| 20260901215601 | 76 | 72 | 9.0 | 19.0 | 0.00 | 0.00 | 0.00 | 85 | 948.5 |
| 20260901215100 | 76 | 67 | 7.0 | 19.0 | 0.00 | 0.00 | 0.00 | 85 | 948.3 |
| 20260901214559 | 76 | 70 | 7.0 | 15.0 | 0.00 | 0.00 | 0.00 | 87 | 948.5 |
| 20260901214057 | 75 | 66 | 6.0 | 16.0 | 0.00 | 0.00 | 0.00 | 88 | 948.8 |
| 20260901213556 | 76 | 76 | 7.0 | 16.0 | 0.00 | 0.00 | 0.00 | 87 | 948.7 |
| 20260901213055 | 76 | 66 | 7.0 | 16.0 | 0.00 | 0.00 | 0.00 | 85 | 948.6 |
| 20260901212038 | 75 | 66 | 7.0 | 15.0 | 0.00 | 0.00 | 0.00 | 88 | 948.8 |